Date String (YYYY-MM-DD hh:mm:ss) UTC,Instrument flags,Ambient pressure (hPa),Sample flow (lpm),Bypass flow (lpm),Sample temperature (°C),Ambient temperature (°C),ASC tube jacket temperature (°C),LED temperature (°C),Box temperature (°C),Sample RH (%),Span deviation,Mass concentration (μg/m³),Mass concentration (μg/m³),Mass concentration (μg/m³)
DateTimeUTC,F1_M11,P_M11,Q1_M11,Q2_M11,T1_M11,T2_M11,T3_M11,T4_M11,T5_M11,U1_M11,ZSPAN_M11,X0_M11,X2_M11,X1_M11
2021-11-13 21:00:00,,0825.6,5.00,0.00,27.3,26.4,00.0,36.2,29.1,12.5,0000.0,0002.11,0000.44,0000.32
2021-11-13 21:01:00,,0825.6,5.00,0.00,27.3,26.4,00.0,36.2,29.1,12.5,0000.0,0002.14,0000.45,0000.33
2021-11-13 21:02:00,,0825.6,5.00,0.00,27.3,26.4,00.0,36.2,29.1,12.4,0000.0,0002.17,0000.46,0000.33
2021-11-13 21:03:00,,0825.6,5.01,0.00,27.3,26.4,00.0,36.2,29.1,12.2,0000.0,0002.25,0000.49,0000.32
2021-11-13 21:04:00,,0825.6,5.01,0.00,27.3,26.4,00.0,36.2,29.1,12.3,0000.0,0001.85,0000.49,0000.33
2021-11-13 21:05:00,,0825.6,5.01,0.00,27.3,26.4,00.0,36.2,29.1,12.4,0000.0,0000.93,0000.48,0000.33
2021-11-13 21:06:00,,0825.6,5.00,0.00,27.3,26.4,00.0,36.2,29.1,12.4,0000.0,0000.82,0000.45,0000.33
2021-11-13 21:07:00,,0825.6,5.00,0.00,27.3,26.4,00.0,36.2,29.1,12.4,0000.0,0000.82,0000.46,0000.34
2021-11-13 21:08:00,,0825.6,5.00,0.00,27.3,26.5,00.0,36.3,29.1,12.4,0000.0,0000.88,0000.49,0000.35
2021-11-13 21:09:00,,0825.7,4.99,0.00,27.3,26.5,00.0,36.3,29.1,12.4,0000.0,0000.94,0000.51,0000.35
2021-11-13 21:10:00,,0825.7,5.01,0.00,27.4,26.5,00.0,36.3,29.1,12.4,0000.0,0000.94,0000.51,0000.36
2021-11-13 21:11:00,,0825.6,4.99,0.00,27.4,26.5,00.0,36.3,29.2,12.4,0000.0,0001.30,0000.53,0000.36
2021-11-13 21:12:00,,0825.6,5.01,0.00,27.4,26.5,00.0,36.3,29.2,12.4,0000.0,0001.68,0000.56,0000.36
2021-11-13 21:13:00,,0825.7,5.00,0.00,27.4,26.6,00.0,36.3,29.2,12.3,0000.0,0001.69,0000.56,0000.36
2021-11-13 21:14:00,,0825.7,4.99,0.00,27.4,26.5,00.0,36.3,29.2,12.3,0000.0,0001.69,0000.55,0000.37
2021-11-13 21:15:00,,0825.8,5.02,0.00,27.4,26.5,00.0,36.3,29.2,12.1,0000.0,0001.75,0000.56,0000.37
2021-11-13 21:16:00,,0825.6,4.98,0.00,27.4,26.6,00.0,36.3,29.2,12.1,0000.0,0001.76,0000.57,0000.38
2021-11-13 21:17:00,,0825.7,5.02,0.00,27.4,26.5,00.0,36.3,29.2,12.0,0000.0,0001.79,0000.57,0000.37
2021-11-13 21:18:00,,0825.6,4.99,0.00,27.4,26.5,00.0,36.3,29.2,12.0,0000.0,0001.80,0000.57,0000.37
2021-11-13 21:19:00,,0825.6,4.99,0.00,27.4,26.6,00.0,36.4,29.2,12.0,0000.0,0001.75,0000.55,0000.36
2021-11-13 21:20:00,,0825.6,5.01,0.00,27.4,26.6,00.0,36.4,29.3,12.0,0000.0,0002.03,0000.55,0000.37
2021-11-13 21:21:00,,0825.6,5.00,0.00,27.4,26.6,00.0,36.4,29.2,12.0,0000.0,0002.31,0000.59,0000.37
2021-11-13 21:22:00,,0825.6,5.02,0.00,27.4,26.6,00.0,36.4,29.2,12.1,0000.0,0001.90,0000.57,0000.37
2021-11-13 21:23:00,,0825.6,5.00,0.00,27.4,26.6,00.0,36.4,29.2,12.2,0000.0,0001.60,0000.58,0000.36
2021-11-13 21:24:00,,0825.6,5.00,0.00,27.4,26.6,00.0,36.4,29.3,12.2,0000.0,0002.15,0000.59,0000.36
2021-11-13 21:25:00,,0825.6,5.00,0.00,27.4,26.6,00.0,36.4,29.2,12.2,0000.0,0003.24,0000.58,0000.35
2021-11-13 21:26:00,,0825.7,4.99,0.00,27.4,26.6,00.0,36.4,29.3,12.1,0000.0,0003.12,0000.55,0000.35
2021-11-13 21:27:00,,0825.9,4.99,0.00,27.5,26.6,00.0,36.4,29.3,12.0,0000.0,0003.09,0000.53,0000.34
2021-11-13 21:28:00,,0825.7,5.00,0.00,27.5,26.6,00.0,36.4,29.2,12.0,0000.0,0003.10,0000.53,0000.34
2021-11-13 21:29:00,,0825.8,5.01,0.00,27.5,26.5,00.0,36.4,29.2,12.2,0000.0,0003.05,0000.51,0000.33
2021-11-13 21:30:00,,0825.8,4.99,0.00,27.5,26.6,00.0,36.4,29.2,12.3,0000.0,0003.03,0000.50,0000.32
2021-11-13 21:31:00,,0825.9,5.00,0.00,27.5,26.6,00.0,36.4,29.3,12.1,0000.0,0002.83,0000.49,0000.32
2021-11-13 21:32:00,,0826.0,5.00,0.00,27.5,26.6,00.0,36.4,29.2,12.1,0000.0,0002.44,0000.45,0000.31
2021-11-13 21:33:00,,0825.8,5.00,0.00,27.5,26.6,00.0,36.4,29.3,12.1,0000.0,0002.40,0000.43,0000.30
2021-11-13 21:34:00,,0825.9,5.00,0.00,27.5,26.7,00.0,36.5,29.3,12.1,0000.0,0002.38,0000.41,0000.30
2021-11-13 21:35:00,,0826.0,5.00,0.00,27.5,26.7,00.0,36.5,29.3,12.1,0000.0,0002.22,0000.41,0000.29
2021-11-13 21:36:00,,0825.9,4.99,0.00,27.5,26.7,00.0,36.5,29.3,12.2,0000.0,0000.85,0000.40,0000.28
2021-11-13 21:37:00,,0825.9,5.01,0.00,27.5,26.7,00.0,36.5,29.3,12.3,0000.0,0000.85,0000.40,0000.28
2021-11-13 21:38:00,,0825.9,4.99,0.00,27.5,26.7,00.0,36.5,29.3,12.2,0000.0,0000.84,0000.39,0000.28
2021-11-13 21:39:00,,0825.9,5.00,0.00,27.5,26.7,00.0,36.5,29.3,12.2,0000.0,0000.78,0000.37,0000.28
2021-11-13 21:40:00,,0825.7,4.99,0.00,27.5,26.7,00.0,36.5,29.3,12.2,0000.0,0001.20,0000.38,0000.28
2021-11-13 21:41:00,,0825.7,4.98,0.00,27.6,26.8,00.0,36.5,29.4,12.3,0000.0,0002.86,0000.39,0000.28
2021-11-13 21:42:00,,0825.9,5.01,0.00,27.6,26.8,00.0,36.5,29.4,12.5,0000.0,0003.17,0000.44,0000.28
2021-11-13 21:43:00,,0826.0,4.99,0.00,27.6,26.8,00.0,36.5,29.4,12.4,0000.0,0003.29,0000.48,0000.28
2021-11-13 21:44:00,,0826.1,5.00,0.00,27.6,26.8,00.0,36.5,29.4,12.2,0000.0,0003.34,0000.52,0000.29
2021-11-13 21:45:00,,0825.8,5.00,0.00,27.6,26.8,00.0,36.5,29.4,12.2,0000.0,0003.30,0000.52,0000.29
2021-11-13 21:46:00,,0825.6,4.99,0.00,27.6,26.9,00.0,36.6,29.4,12.5,0000.0,0003.21,0000.53,0000.30
2021-11-13 21:47:00,,0825.7,5.01,0.00,27.6,26.9,00.0,36.6,29.4,12.5,0000.0,0004.78,0000.58,0000.30
2021-11-13 21:48:00,,0825.9,5.01,0.00,27.6,26.8,00.0,36.6,29.5,12.2,0000.0,0005.87,0000.64,0000.31
2021-11-13 21:49:00,,0826.1,4.99,0.00,27.6,26.9,00.0,36.6,29.5,12.3,0000.0,0006.37,0000.67,0000.31
2021-11-13 21:50:00,,0826.2,5.01,0.00,27.6,26.9,00.0,36.6,29.5,12.5,0000.0,0006.99,0000.74,0000.31
2021-11-13 21:51:00,,0826.1,5.01,0.00,27.6,26.9,00.0,36.6,29.4,12.6,0000.0,0007.15,0000.76,0000.32
2021-11-13 21:52:00,,0826.1,4.99,0.00,27.6,26.9,00.0,36.6,29.4,12.6,0000.0,0006.35,0000.77,0000.32
2021-11-13 21:53:00,,0826.0,5.00,0.00,27.6,26.9,00.0,36.6,29.4,12.6,0000.0,0006.01,0000.73,0000.32
2021-11-13 21:54:00,,0826.0,5.01,0.00,27.7,26.9,00.0,36.6,29.5,12.6,0000.0,0005.92,0000.71,0000.32
2021-11-13 21:55:00,,0826.1,4.98,0.00,27.7,26.9,00.0,36.6,29.5,12.6,0000.0,0006.01,0000.73,0000.31
2021-11-13 21:56:00,,0826.0,5.00,0.00,27.7,27.0,00.0,36.7,29.5,12.7,0000.0,0006.03,0000.74,0000.32
2021-11-13 21:57:00,,0825.8,5.01,0.00,27.7,27.0,00.0,36.7,29.5,12.8,0000.0,0005.97,0000.73,0000.32
2021-11-13 21:58:00,,0825.8,4.99,0.00,27.7,27.0,00.0,36.7,29.6,12.8,0000.0,0004.62,0000.70,0000.31
2021-11-13 21:59:00,,0826.0,4.99,0.00,27.7,27.0,00.0,36.7,29.6,12.7,0000.0,0003.50,0000.69,0000.31
